This is the latest recevied weather packets stored in our database for station/object I2HLY-4. If no packets are shown the sender has not sent any weather packets the latest 10 day(s).
| Time | Temp. | Humidity | Pressure | Rain* | Wind** | Luminosity | Snow |
|---|---|---|---|---|---|---|---|
| 1777524432 | 7.22° C | 97% | 1022.4 hPa | 0 mm | - | - | - |
| 1777523546 | 7.22° C | 97% | 1022.4 hPa | 2.03 mm | - | - | - |
| 1777522647 | 7.78° C | 98% | 1022.4 hPa | 3.05 mm | - | - | - |
| 1777521740 | 7.78° C | 98% | 1022.3 hPa | 3.05 mm | - | - | - |
| 1777520837 | 7.78° C | 98% | 1022.4 hPa | 3.05 mm | - | - | - |
| 1777519951 | 7.78° C | 98% | 1022.4 hPa | 1.02 mm | - | - | - |
| 1777519043 | 7.78° C | 98% | 1022.4 hPa | 0 mm | - | - | - |
| 1777518142 | 7.78° C | 98% | 1022.3 hPa | 0 mm | - | - | - |
| 1777517236 | 7.78° C | 98% | 1022.3 hPa | 3.05 mm | - | - | - |
| 1777516350 | 7.78° C | 98% | 1022.3 hPa | 3.05 mm | - | - | - |
| 1777515447 | 7.78° C | 98% | 1022.4 hPa | 4.06 mm | - | - | - |
| 1777514541 | 7.78° C | 98% | 1022.3 hPa | 4.06 mm | - | - | - |
| 1777513726 | 7.78° C | 98% | 1022.3 hPa | 1.02 mm | - | - | - |
| 1777512736 | 8.33° C | 98% | 1022 hPa | 1.02 mm | - | - | - |
| 1777511850 | 8.33° C | 98% | 1022 hPa | 0 mm | - | - | - |
| 1777510039 | 8.33° C | 97% | 1021.9 hPa | 0 mm | - | - | - |
| 1777509146 | 8.33° C | 97% | 1021.9 hPa | 0 mm | - | - | - |
| 1777508237 | 8.89° C | 97% | 1021.9 hPa | 0 mm | - | - | - |
| 1777506431 | 9.44° C | 97% | 1021.5 hPa | 0 mm | - | - | - |
| 1777505539 | 9.44° C | 97% | 1021.4 hPa | 0 mm | - | - | - |
| 1777504632 | 9.44° C | 97% | 1021.3 hPa | 0 mm | - | - | - |
| 1777503742 | 10° C | 97% | 1021.4 hPa | 0 mm | - | - | - |
| 1777502834 | 10° C | 97% | 1021.1 hPa | 0 mm | - | - | - |
| 1777501946 | 10° C | 96% | 1020.9 hPa | 0 mm | - | - | - |
| 1777501038 | 10° C | 96% | 1020.9 hPa | 0 mm | - | - | - |
* Rain latest hour (hover to see other rain measurements)
** Current wind speed in m/s (hover to see current wind gust speed)